,,,PA_Meas_PMT16A,,PR_Meas_QMR101_102,,RH_Meas_QMH101,,SR_Meas_QMS101,,TA_Meas_QMH101,,GenWind,,GenWind,
date,time,status,PA,status,PR,status,RH,status,SR,status,TA,status,DirAvg,status,SpdAvg,
2008-05-27, 00:00:05,VALID,1005.23,VALID,0,VALID,95.094,VALID,0,VALID,24.6009,VALID,69,VALID,0.198828,
2008-05-27, 00:01:05,VALID,1005.19,VALID,0,VALID,95.0711,VALID,0,VALID,24.6009,VALID,69,VALID,0,
2008-05-27, 00:02:05,VALID,1005.21,VALID,0,VALID,95.0177,VALID,0,VALID,24.6204,VALID,69,VALID,0,
2008-05-27, 00:03:05,VALID,1005.2,VALID,0,VALID,94.9948,VALID,0,VALID,24.5814,VALID,69,VALID,0,
2008-05-27, 00:04:05,VALID,1005.21,VALID,0,VALID,94.9948,VALID,0,VALID,24.5601,VALID,69,VALID,0,
2008-05-27, 00:05:05,VALID,1005.22,VALID,0,VALID,95.033,VALID,0,VALID,24.5814,VALID,69,VALID,0,
2008-05-27, 00:06:05,VALID,1005.22,VALID,0,VALID,95.0635,VALID,0,VALID,24.5814,VALID,69,VALID,0,
2008-05-27, 00:07:05,VALID,1005.21,VALID,0,VALID,95.0787,VALID,0,VALID,24.5814,VALID,69,VALID,0,
2008-05-27, 00:08:05,VALID,1005.2,VALID,0,VALID,95.1169,VALID,0,VALID,24.5814,VALID,69,VALID,0,
2008-05-27, 00:09:05,VALID,1005.19,VALID,0,VALID,95.1245,VALID,0,VALID,24.6028,VALID,69,VALID,0,
2008-05-27, 00:10:05,VALID,1005.18,VALID,0,VALID,95.1474,VALID,0,VALID,24.6028,VALID,69,VALID,0,
2008-05-27, 00:11:05,VALID,1005.15,VALID,0,VALID,95.1627,VALID,0,VALID,24.562,VALID,69,VALID,0,
2008-05-27, 00:12:05,VALID,1005.17,VALID,0,VALID,95.1703,VALID,0,VALID,24.6028,VALID,69,VALID,0,
2008-05-27, 00:13:05,VALID,1005.17,VALID,0,VALID,95.1474,VALID,0,VALID,24.562,VALID,69,VALID,0,
2008-05-27, 00:14:05,VALID,1005.17,VALID,0,VALID,95.1627,VALID,0,VALID,24.5814,VALID,69,VALID,0,
2008-05-27, 00:15:05,VALID,1005.15,VALID,0,VALID,95.1627,VALID,0,VALID,24.562,VALID,69,VALID,0,
2008-05-27, 00:16:04,VALID,1005.13,VALID,0,VALID,95.2008,VALID,0,VALID,24.562,VALID,69,VALID,0,
2008-05-27, 00:17:04,VALID,1005.14,VALID,0,VALID,95.1855,VALID,0,VALID,24.562,VALID,69,VALID,0,
2008-05-27, 00:18:04,VALID,1005.13,VALID,0,VALID,95.1245,VALID,0,VALID,24.562,VALID,65,VALID,0,
2008-05-27, 00:19:04,VALID,1005.11,VALID,0,VALID,95.1321,VALID,0,VALID,24.562,VALID,65,VALID,0,
2008-05-27, 00:20:04,VALID,1005.09,VALID,0,VALID,95.1093,VALID,0,VALID,24.5425,VALID,65,VALID,0,
2008-05-27, 00:21:04,VALID,1005.09,VALID,0,VALID,95.094,VALID,0,VALID,24.5035,VALID,65,VALID,0,
2008-05-27, 00:22:04,VALID,1005.07,VALID,0,VALID,95.0711,VALID,0,VALID,24.5035,VALID,65,VALID,0,
2008-05-27, 00:23:04,VALID,1005.05,VALID,0,VALID,95.1016,VALID,0,VALID,24.5035,VALID,65,VALID,0,
2008-05-27, 00:24:04,VALID,1005.03,VALID,0,VALID,95.1474,VALID,0,VALID,24.5035,VALID,65,VALID,0,
2008-05-27, 00:25:04,VALID,1005.03,VALID,0,VALID,95.1016,VALID,0,VALID,24.4841,VALID,65,VALID,0,
2008-05-27, 00:26:04,VALID,1004.98,VALID,0,VALID,95.1016,VALID,0,VALID,24.4841,VALID,65,VALID,0,
2008-05-27, 00:27:04,VALID,1004.94,VALID,0,VALID,95.094,VALID,0,VALID,24.4646,VALID,65,VALID,0,
2008-05-27, 00:28:04,VALID,1004.95,VALID,0,VALID,95.1093,VALID,0,VALID,24.4646,VALID,65,VALID,0,
2008-05-27, 00:29:04,VALID,1004.92,VALID,0,VALID,95.1016,VALID,0,VALID,24.4665,VALID,65,VALID,0,
2008-05-27, 00:30:04,VALID,1004.89,VALID,0,VALID,95.1093,VALID,0,VALID,24.4451,VALID,65,VALID,0,
2008-05-27, 00:31:04,VALID,1004.84,VALID,0,VALID,95.1627,VALID,0,VALID,24.4646,VALID,65,VALID,0,
2008-05-27, 00:32:04,VALID,1004.85,VALID,0,VALID,95.155,VALID,0,VALID,24.4451,VALID,65,VALID,0,
2008-05-27, 00:33:04,VALID,1004.8,VALID,0,VALID,95.1398,VALID,0,VALID,24.4451,VALID,65,VALID,0,
2008-05-27, 00:34:04,VALID,1004.79,VALID,0,VALID,95.1703,VALID,0,VALID,24.4451,VALID,65,VALID,0,
2008-05-27, 00:35:04,VALID,1004.8,VALID,0,VALID,95.1321,VALID,0,VALID,24.4062,VALID,65,VALID,0,
2008-05-27, 00:36:04,VALID,1004.81,VALID,0,VALID,95.0711,VALID,0,VALID,24.3867,VALID,65,VALID,0,
2008-05-27, 00:37:04,VALID,1004.77,VALID,0,VALID,95.0787,VALID,0,VALID,24.3673,VALID,64,VALID,0,
2008-05-27, 00:38:04,VALID,1004.8,VALID,0,VALID,95.0711,VALID,0,VALID,24.3283,VALID,63,VALID,0,
2008-05-27, 00:39:04,VALID,1004.73,VALID,0,VALID,95.094,VALID,0,VALID,24.3088,VALID,63,VALID,0,
2008-05-27, 00:40:04,VALID,1004.72,VALID,0,VALID,95.1321,VALID,0,VALID,24.2699,VALID,63,VALID,0.307422,
2008-05-27, 00:41:04,VALID,1004.7,VALID,0,VALID,95.1932,VALID,0,VALID,24.2699,VALID,63,VALID,0.331641,
2008-05-27, 00:42:04,VALID,1004.66,VALID,0,VALID,95.2618,VALID,0,VALID,24.2504,VALID,63,VALID,0.261328,
2008-05-27, 00:43:04,VALID,1004.64,VALID,0,VALID,95.2695,VALID,0,VALID,24.2504,VALID,63,VALID,0.260547,
2008-05-27, 00:44:04,VALID,1004.62,VALID,0,VALID,95.2923,VALID,0,VALID,24.2699,VALID,63,VALID,0.390234,
2008-05-27, 00:45:04,VALID,1004.6,VALID,0,VALID,95.2923,VALID,0,VALID,24.231,VALID,63,VALID,0.430469,
2008-05-27, 00:46:04,VALID,1004.59,VALID,0,VALID,95.2923,VALID,0,VALID,24.231,VALID,63,VALID,0.475,
2008-05-27, 00:47:04,VALID,1004.55,VALID,0,VALID,95.3381,VALID,0,VALID,24.2523,VALID,63,VALID,0.233594,
2008-05-27, 00:48:04,VALID,1004.57,VALID,0,VALID,95.3534,VALID,0,VALID,24.1902,VALID,63,VALID,0.244141,
2008-05-27, 00:49:04,VALID,1004.56,VALID,0,VALID,95.4068,VALID,0,VALID,24.2523,VALID,63,VALID,0.261719,
2008-05-27, 00:50:04,VALID,1004.58,VALID,0,VALID,95.4678,VALID,0,VALID,24.231,VALID,63,VALID,0.225391,
2008-05-27, 00:51:04,VALID,1004.55,VALID,0,VALID,95.4602,VALID,0,VALID,24.2504,VALID,63,VALID,0.140234,
2008-05-27, 00:52:04,VALID,1004.54,VALID,0,VALID,95.5212,VALID,0,VALID,24.2504,VALID,63,VALID,0.142969,
2008-05-27, 00:53:04,VALID,1004.49,VALID,0,VALID,95.4831,VALID,0,VALID,24.2699,VALID,63,VALID,0.141797,
2008-05-27, 00:54:04,VALID,1004.5,VALID,0,VALID,95.4602,VALID,0,VALID,24.2504,VALID,63,VALID,0.201172,
2008-05-27, 00:55:04,VALID,1004.48,VALID,0,VALID,95.3991,VALID,0,VALID,24.2291,VALID,63,VALID,0.218359,
2008-05-27, 00:56:04,VALID,1004.45,VALID,0,VALID,95.3915,VALID,0,VALID,24.231,VALID,63,VALID,0,
2008-05-27, 00:57:04,VALID,1004.42,VALID,0,VALID,95.3305,VALID,0,VALID,24.2115,VALID,63,VALID,0,
2008-05-27, 00:58:04,VALID,1004.41,VALID,0,VALID,95.3686,VALID,0,VALID,24.2115,VALID,62,VALID,0.451562,
2008-05-27, 00:59:04,VALID,1004.41,VALID,0,VALID,95.3686,VALID,0,VALID,24.192,VALID,61,VALID,0.426953,
2008-05-27, 01:00:04,VALID,1004.4,VALID,0,VALID,95.3686,VALID,0,VALID,24.1939,VALID,61,VALID,0.371094,
2008-05-27, 01:01:04,VALID,1004.4,VALID,0,VALID,95.3534,VALID,0,VALID,24.1531,VALID,61,VALID,0.248047,
2008-05-27, 01:02:04,VALID,1004.36,VALID,0,VALID,95.361,VALID,0,VALID,24.1336,VALID,61,VALID,0.0308594,
2008-05-27, 01:03:04,VALID,1004.36,VALID,0,VALID,95.4754,VALID,0,VALID,24.1531,VALID,53,VALID,0.333594,
2008-05-27, 01:04:04,VALID,1004.33,VALID,0,VALID,95.4907,VALID,0,VALID,24.192,VALID,53,VALID,0.171094,
2008-05-27, 01:05:04,VALID,1004.33,VALID,0,VALID,95.5288,VALID,0,VALID,24.1726,VALID,52,VALID,0.223828,
2008-05-27, 01:06:04,VALID,1004.32,VALID,0,VALID,95.5136,VALID,0,VALID,24.192,VALID,52,VALID,0.460156,
2008-05-27, 01:07:04,VALID,1004.28,VALID,0,VALID,95.5136,VALID,0,VALID,24.1707,VALID,52,VALID,0.467969,
2008-05-27, 01:08:04,VALID,1004.25,VALID,0,VALID,95.4983,VALID,0,VALID,24.1726,VALID,52,VALID,0.246875,
2008-05-27, 01:09:04,VALID,1004.23,VALID,0,VALID,95.4831,VALID,0,VALID,24.192,VALID,52,VALID,0.253125,
2008-05-27, 01:10:04,VALID,1004.21,VALID,0,VALID,95.506,VALID,0,VALID,24.1726,VALID,52,VALID,0.160938,
2008-05-27, 01:11:04,VALID,1004.2,VALID,0,VALID,95.4144,VALID,0,VALID,24.1531,VALID,52,VALID,0,
2008-05-27, 01:12:04,VALID,1004.16,VALID,0,VALID,95.4297,VALID,0,VALID,24.1318,VALID,52,VALID,0,
2008-05-27, 01:13:04,VALID,1004.14,VALID,0,VALID,95.4297,VALID,0.100563,VALID,24.1318,VALID,52,VALID,0,
2008-05-27, 01:14:04,VALID,1004.12,VALID,0,VALID,95.4907,VALID,0,VALID,24.1123,VALID,52,VALID,0,
2008-05-27, 01:15:04,VALID,1004.08,VALID,0,VALID,95.5975,VALID,0,VALID,24.1318,VALID,52,VALID,0,
2008-05-27, 01:16:04,VALID,1004.06,VALID,0,VALID,95.5822,VALID,0,VALID,24.1726,VALID,52,VALID,0,
2008-05-27, 01:17:04,VALID,1004.02,VALID,0,VALID,95.5822,VALID,0,VALID,24.1726,VALID,52,VALID,0,
2008-05-27, 01:18:04,VALID,1003.98,VALID,0,VALID,95.6204,VALID,0,VALID,24.192,VALID,52,VALID,0,
2008-05-27, 01:19:04,VALID,1003.96,VALID,0,VALID,95.5822,VALID,0,VALID,24.192,VALID,52,VALID,0,
2008-05-27, 01:20:04,VALID,1003.96,VALID,0,VALID,95.5517,VALID,0,VALID,24.192,VALID,52,VALID,0,
2008-05-27, 01:21:04,VALID,1003.97,VALID,0,VALID,95.5365,VALID,0,VALID,24.1726,VALID,52,VALID,0,
2008-05-27, 01:22:04,VALID,1003.95,VALID,0,VALID,95.5365,VALID,0,VALID,24.1513,VALID,52,VALID,0,
2008-05-27, 01:23:04,VALID,1003.95,VALID,0,VALID,95.5517,VALID,0,VALID,24.1531,VALID,52,VALID,0,
2008-05-27, 01:24:04,VALID,1003.92,VALID,0,VALID,95.5288,VALID,0,VALID,24.1531,VALID,52,VALID,0,
2008-05-27, 01:25:04,VALID,1003.95,VALID,0,VALID,95.506,VALID,0,VALID,24.1123,VALID,52,VALID,0,
2008-05-27, 01:26:04,VALID,1003.92,VALID,0,VALID,95.5288,VALID,0,VALID,24.1142,VALID,52,VALID,0,
2008-05-27, 01:27:04,VALID,1003.89,VALID,0,VALID,95.5822,VALID,0,VALID,24.1142,VALID,52,VALID,0,
2008-05-27, 01:28:04,VALID,1003.89,VALID,0,VALID,95.5517,VALID,0,VALID,24.1336,VALID,52,VALID,0,
2008-05-27, 01:29:04,VALID,1003.88,VALID,0,VALID,95.567,VALID,0,VALID,24.0929,VALID,52,VALID,0,
2008-05-27, 01:30:04,VALID,1003.84,VALID,0,VALID,95.5517,VALID,0,VALID,24.1142,VALID,52,VALID,0,
2008-05-27, 01:31:04,VALID,1003.84,VALID,0,VALID,95.5594,VALID,0,VALID,24.0734,VALID,52,VALID,0,
2008-05-27, 01:32:04,VALID,1003.81,VALID,0,VALID,95.5517,VALID,0,VALID,24.0947,VALID,52,VALID,0,
2008-05-27, 01:33:04,VALID,1003.82,VALID,0,VALID,95.5746,VALID,0,VALID,24.0947,VALID,52,VALID,0,
2008-05-27, 01:34:04,VALID,1003.79,VALID,0,VALID,95.5441,VALID,0,VALID,24.0752,VALID,52,VALID,0,
2008-05-27, 01:35:04,VALID,1003.77,VALID,0,VALID,95.4526,VALID,0,VALID,24.0363,VALID,52,VALID,0,
2008-05-27, 01:36:04,VALID,1003.76,VALID,0,VALID,95.422,VALID,0,VALID,23.9779,VALID,52,VALID,0.01875,
2008-05-27, 01:37:04,VALID,1003.75,VALID,0,VALID,95.3763,VALID,0,VALID,23.9566,VALID,52,VALID,0.273047,
2008-05-27, 01:38:04,VALID,1003.72,VALID,0,VALID,95.4297,VALID,0,VALID,23.9195,VALID,52,VALID,0.2625,
2008-05-27, 01:39:04,VALID,1003.7,VALID,0,VALID,95.5212,VALID,0.100563,VALID,23.9177,VALID,52,VALID,0.251563,
2008-05-27, 01:40:04,VALID,1003.72,VALID,0,VALID,95.5365,VALID,0,VALID,23.9195,VALID,52,VALID,0.369922,
2008-05-27, 01:41:04,VALID,1003.7,VALID,0,VALID,95.4907,VALID,0,VALID,23.9,VALID,52,VALID,0.383594,
2008-05-27, 01:42:04,VALID,1003.71,VALID,0,VALID,95.5212,VALID,0,VALID,23.8787,VALID,52,VALID,0.278906,
2008-05-27, 01:43:04,VALID,1003.69,VALID,0,VALID,95.5365,VALID,0,VALID,23.9,VALID,52,VALID,0.347266,
2008-05-27, 01:44:04,VALID,1003.67,VALID,0,VALID,95.567,VALID,0,VALID,23.8593,VALID,52,VALID,0.216406,
2008-05-27, 01:45:04,VALID,1003.69,VALID,0,VALID,95.567,VALID,0,VALID,23.8611,VALID,52,VALID,0.159375,
2008-05-27, 01:46:04,VALID,1003.71,VALID,0,VALID,95.5517,VALID,0.100563,VALID,23.8611,VALID,52,VALID,0.167969,
2008-05-27, 01:47:04,VALID,1003.69,VALID,0,VALID,95.5822,VALID,0.100563,VALID,23.8203,VALID,52,VALID,0.0539063,
2008-05-27, 01:48:04,VALID,1003.68,VALID,0,VALID,95.5899,VALID,0,VALID,23.8221,VALID,52,VALID,0.159766,
2008-05-27, 01:49:04,VALID,1003.68,VALID,0,VALID,95.567,VALID,0,VALID,23.8221,VALID,52,VALID,0,
2008-05-27, 01:50:04,VALID,1003.67,VALID,0,VALID,95.5746,VALID,0,VALID,23.8221,VALID,52,VALID,0,
2008-05-27, 01:51:04,VALID,1003.68,VALID,0,VALID,95.5975,VALID,0,VALID,23.8027,VALID,52,VALID,0,
2008-05-27, 01:52:04,VALID,1003.65,VALID,0,VALID,95.6662,VALID,0,VALID,23.8221,VALID,52,VALID,0,
2008-05-27, 01:53:04,VALID,1003.65,VALID,0,VALID,95.6967,VALID,0,VALID,23.8203,VALID,52,VALID,0,
2008-05-27, 01:54:04,VALID,1003.64,VALID,0,VALID,95.773,VALID,0,VALID,23.8593,VALID,52,VALID,0.285156,
2008-05-27, 01:55:04,VALID,1003.64,VALID,0,VALID,95.7959,VALID,0,VALID,23.8593,VALID,52,VALID,0.289453,
2008-05-27, 01:56:04,VALID,1003.65,VALID,0,VALID,95.7959,VALID,0,VALID,23.8787,VALID,52,VALID,0.372656,
2008-05-27, 01:57:04,VALID,1003.62,VALID,0,VALID,95.8111,VALID,0,VALID,23.9195,VALID,52,VALID,0.402344,
2008-05-27, 01:58:04,VALID,1003.63,VALID,0,VALID,95.7577,VALID,0,VALID,23.8982,VALID,52,VALID,0.172656,
2008-05-27, 01:59:04,VALID,1003.63,VALID,0,VALID,95.5288,VALID,0,VALID,23.8611,VALID,52,VALID,0.357031,
2008-05-27, 02:00:04,VALID,1003.62,VALID,0,VALID,95.5975,VALID,0,VALID,23.8416,VALID,52,VALID,0.232031,
2008-05-27, 02:01:04,VALID,1003.6,VALID,0,VALID,95.7196,VALID,0,VALID,23.8416,VALID,48,VALID,0.214844,
2008-05-27, 02:02:04,VALID,1003.61,VALID,0,VALID,95.7653,VALID,0,VALID,23.8805,VALID,48,VALID,0.168359,
2008-05-27, 02:03:04,VALID,1003.61,VALID,0,VALID,95.7882,VALID,0,VALID,23.8593,VALID,48,VALID,0.238281,
2008-05-27, 02:04:04,VALID,1003.63,VALID,0,VALID,95.689,VALID,0,VALID,23.8805,VALID,48,VALID,0.280859,
2008-05-27, 02:05:04,VALID,1003.62,VALID,0,VALID,95.6356,VALID,0,VALID,23.8416,VALID,48,VALID,0.369922,
2008-05-27, 02:06:04,VALID,1003.63,VALID,0,VALID,95.6204,VALID,0,VALID,23.8221,VALID,47,VALID,0.375,
2008-05-27, 02:07:04,VALID,1003.63,VALID,0,VALID,95.6051,VALID,0.100563,VALID,23.7814,VALID,46,VALID,0.374609,
2008-05-27, 02:08:04,VALID,1003.64,VALID,0,VALID,95.5746,VALID,0,VALID,23.7637,VALID,40,VALID,0.464453,
2008-05-27, 02:09:04,VALID,1003.64,VALID,0,VALID,95.5975,VALID,0,VALID,23.7637,VALID,38,VALID,0.451562,
2008-05-27, 02:10:04,VALID,1003.65,VALID,0,VALID,95.6204,VALID,0,VALID,23.7443,VALID,38,VALID,0.357422,
2008-05-27, 02:11:04,VALID,1003.62,VALID,0,VALID,95.6204,VALID,0,VALID,23.7248,VALID,38,VALID,0.358984,
2008-05-27, 02:12:04,VALID,1003.61,VALID,0,VALID,95.6204,VALID,0,VALID,23.7053,VALID,38,VALID,0.359766,
2008-05-27, 02:13:04,VALID,1003.62,VALID,0,VALID,95.689,VALID,0,VALID,23.7053,VALID,38,VALID,0.4125,
2008-05-27, 02:14:04,VALID,1003.63,VALID,0,VALID,95.7119,VALID,0,VALID,23.6841,VALID,38,VALID,0.293359,
2008-05-27, 02:15:04,VALID,1003.6,VALID,0,VALID,95.7424,VALID,0,VALID,23.7053,VALID,38,VALID,0.190234,
2008-05-27, 02:16:04,VALID,1003.63,VALID,0,VALID,95.7577,VALID,0,VALID,23.6841,VALID,38,VALID,0.0554687,
2008-05-27, 02:17:04,VALID,1003.61,VALID,0,VALID,95.7272,VALID,0,VALID,23.7053,VALID,38,VALID,0,
2008-05-27, 02:18:04,VALID,1003.62,VALID,0,VALID,95.7577,VALID,0,VALID,23.6646,VALID,38,VALID,0,
2008-05-27, 02:19:04,VALID,1003.63,VALID,0,VALID,95.773,VALID,0,VALID,23.7053,VALID,38,VALID,0.0015625,
2008-05-27, 02:20:04,VALID,1003.64,VALID,0,VALID,95.8035,VALID,0,VALID,23.6859,VALID,38,VALID,0.00429688,
2008-05-27, 02:21:04,VALID,1003.62,VALID,0,VALID,95.8264,VALID,0,VALID,23.7053,VALID,38,VALID,0,
2008-05-27, 02:22:04,VALID,1003.64,VALID,0,VALID,95.8569,VALID,0,VALID,23.7035,VALID,38,VALID,0,
2008-05-27, 02:23:04,VALID,1003.63,VALID,0,VALID,95.8874,VALID,0,VALID,23.7248,VALID,38,VALID,0,
2008-05-27, 02:24:04,VALID,1003.68,VALID,0,VALID,95.895,VALID,0,VALID,23.7248,VALID,38,VALID,0,
2008-05-27, 02:25:04,VALID,1003.65,VALID,0,VALID,95.8493,VALID,0,VALID,23.7443,VALID,38,VALID,0,
2008-05-27, 02:26:04,VALID,1003.67,VALID,0,VALID,95.8264,VALID,0,VALID,23.7443,VALID,38,VALID,0,
2008-05-27, 02:27:04,VALID,1003.7,VALID,0,VALID,95.834,VALID,0,VALID,23.7248,VALID,38,VALID,0.0273438,
2008-05-27, 02:28:04,VALID,1003.72,VALID,0,VALID,95.7882,VALID,0,VALID,23.7053,VALID,38,VALID,0.319531,
2008-05-27, 02:29:04,VALID,1003.75,VALID,0,VALID,95.8111,VALID,0,VALID,23.7053,VALID,38,VALID,0.411328,
2008-05-27, 02:30:04,VALID,1003.74,VALID,0,VALID,95.8264,VALID,0,VALID,23.6859,VALID,38,VALID,0.451953,
2008-05-27, 02:31:04,VALID,1003.74,VALID,0,VALID,95.834,VALID,0,VALID,23.6859,VALID,38,VALID,0.498828,
2008-05-27, 02:32:04,VALID,1003.76,VALID,0,VALID,95.7196,VALID,0,VALID,23.6257,VALID,38,VALID,0.452344,
2008-05-27, 02:33:04,VALID,1003.76,VALID,0,VALID,95.6585,VALID,0,VALID,23.5885,VALID,38,VALID,0.407031,
2008-05-27, 02:34:04,VALID,1003.76,VALID,0,VALID,95.6433,VALID,0,VALID,23.5691,VALID,38,VALID,0.412891,
2008-05-27, 02:35:04,VALID,1003.74,VALID,0,VALID,95.7577,VALID,0,VALID,23.5903,VALID,38,VALID,0.409766,
2008-05-27, 02:36:04,VALID,1003.75,VALID,0,VALID,95.8187,VALID,0,VALID,23.5885,VALID,38,VALID,0.3125,
2008-05-27, 02:37:04,VALID,1003.76,VALID,0,VALID,95.8264,VALID,0,VALID,23.5691,VALID,38,VALID,0.251953,
2008-05-27, 02:38:04,VALID,1003.75,VALID,0,VALID,95.8264,VALID,0,VALID,23.5709,VALID,38,VALID,0.194141,
2008-05-27, 02:39:04,VALID,1003.73,VALID,0,VALID,95.8721,VALID,0,VALID,23.5903,VALID,38,VALID,0.139844,
2008-05-27, 02:40:04,VALID,1003.73,VALID,0,VALID,95.9179,VALID,0,VALID,23.5885,VALID,38,VALID,0,
2008-05-27, 02:41:04,VALID,1003.78,VALID,0,VALID,95.9637,VALID,0,VALID,23.6275,VALID,38,VALID,0,
2008-05-27, 02:42:04,VALID,1003.78,VALID,0,VALID,95.9942,VALID,0,VALID,23.6664,VALID,38,VALID,0.315625,
2008-05-27, 02:43:04,VALID,1003.75,VALID,0,VALID,95.9866,VALID,0,VALID,23.6664,VALID,38,VALID,0.205859,
2008-05-27, 02:44:04,VALID,1003.74,VALID,0,VALID,95.9713,VALID,0,VALID,23.6646,VALID,38,VALID,0.185547,
2008-05-27, 02:45:04,VALID,1003.75,VALID,0,VALID,95.9179,VALID,0,VALID,23.6859,VALID,38,VALID,0.305469,
2008-05-27, 02:46:04,VALID,1003.72,VALID,0,VALID,95.895,VALID,0,VALID,23.6664,VALID,38,VALID,0.353906,
2008-05-27, 02:47:04,VALID,1003.72,VALID,0,VALID,95.9179,VALID,0,VALID,23.6859,VALID,38,VALID,0.444531,
2008-05-27, 02:48:04,VALID,1003.75,VALID,0,VALID,95.895,VALID,0,VALID,23.6452,VALID,38,VALID,0.333203,
2008-05-27, 02:49:04,VALID,1003.73,VALID,0,VALID,95.7501,VALID,0,VALID,23.6293,VALID,38,VALID,0.347656,
2008-05-27, 02:50:04,VALID,1003.79,VALID,0,VALID,95.7959,VALID,0,VALID,23.5868,VALID,38,VALID,0.505078,
2008-05-27, 02:51:04,VALID,1003.79,VALID,0,VALID,95.9561,VALID,0,VALID,23.6469,VALID,38,VALID,0.365234,
2008-05-27, 02:52:04,VALID,1003.81,VALID,0,VALID,96.0247,VALID,0,VALID,23.6859,VALID,38,VALID,0.409375,
2008-05-27, 02:53:04,VALID,1003.8,VALID,0,VALID,96.0629,VALID,0,VALID,23.7655,VALID,38,VALID,0.437891,
2008-05-27, 02:54:04,VALID,1003.81,VALID,0,VALID,96.101,VALID,0,VALID,23.7832,VALID,38,VALID,0.473437,
2008-05-27, 02:55:04,VALID,1003.83,VALID,0,VALID,96.0552,VALID,0,VALID,23.8027,VALID,38,VALID,0.384375,
2008-05-27, 02:56:04,VALID,1003.82,VALID,0,VALID,96.0705,VALID,0,VALID,23.8221,VALID,38,VALID,0.492969,
2008-05-27, 02:57:04,VALID,1003.83,VALID,0,VALID,96.0095,VALID,0,VALID,23.8221,VALID,38,VALID,0.355469,
2008-05-27, 02:58:04,VALID,1003.84,VALID,0,VALID,96.0552,VALID,0,VALID,23.8398,VALID,38,VALID,0.467969,
2008-05-27, 02:59:04,VALID,1003.83,VALID,0,VALID,96.04,VALID,0,VALID,23.8805,VALID,38,VALID,0.506641,
2008-05-27, 03:00:04,VALID,1003.84,VALID,0,VALID,95.9713,VALID,0,VALID,23.8805,VALID,38,VALID,0.378125,
2008-05-27, 03:01:04,VALID,1003.81,VALID,0,VALID,95.895,VALID,0,VALID,23.8398,VALID,38,VALID,0.349219,
2008-05-27, 03:02:04,VALID,1003.84,VALID,0,VALID,95.8569,VALID,0,VALID,23.8416,VALID,38,VALID,0.278125,
2008-05-27, 03:03:04,VALID,1003.83,VALID,0,VALID,95.9027,VALID,0,VALID,23.8203,VALID,38,VALID,0.284766,
2008-05-27, 03:04:04,VALID,1003.81,VALID,0,VALID,95.9713,VALID,0,VALID,23.8398,VALID,38,VALID,0.286328,
2008-05-27, 03:05:04,VALID,1003.78,VALID,0,VALID,95.9332,VALID,0,VALID,23.8611,VALID,38,VALID,0.266016,
2008-05-27, 03:06:04,VALID,1003.75,VALID,0,VALID,95.9561,VALID,0,VALID,23.8611,VALID,38,VALID,0.200781,
2008-05-27, 03:07:04,VALID,1003.74,VALID,0,VALID,95.8874,VALID,0,VALID,23.8611,VALID,38,VALID,0.216797,
2008-05-27, 03:08:04,VALID,1003.76,VALID,0,VALID,95.8416,VALID,0,VALID,23.8416,VALID,38,VALID,0.0511719,
2008-05-27, 03:09:04,VALID,1003.72,VALID,0,VALID,95.7501,VALID,0,VALID,23.8027,VALID,38,VALID,0.275781,
2008-05-27, 03:10:04,VALID,1003.75,VALID,0,VALID,95.7196,VALID,0,VALID,23.7637,VALID,38,VALID,0.305469,
2008-05-27, 03:11:04,VALID,1003.75,VALID,0,VALID,95.7119,VALID,0,VALID,23.7248,VALID,38,VALID,0.353906,
2008-05-27, 03:12:04,VALID,1003.72,VALID,0,VALID,95.7043,VALID,0,VALID,23.7053,VALID,38,VALID,0.347266,
2008-05-27, 03:13:04,VALID,1003.76,VALID,0,VALID,95.7196,VALID,0,VALID,23.6859,VALID,38,VALID,0.450781,
2008-05-27, 03:14:04,VALID,1003.78,VALID,0,VALID,95.6814,VALID,0,VALID,23.6469,VALID,38,VALID,0.494922,
2008-05-27, 03:15:04,VALID,1003.77,VALID,0,VALID,95.7043,VALID,0,VALID,23.6275,VALID,38,VALID,0.434766,
2008-05-27, 03:16:04,VALID,1003.8,VALID,0,VALID,95.8569,VALID,0,VALID,23.6275,VALID,35,VALID,0.416016,
2008-05-27, 03:17:04,VALID,1003.8,VALID,0,VALID,95.9255,VALID,0,VALID,23.6257,VALID,16,VALID,0.491797,
2008-05-27, 03:18:04,VALID,1003.79,VALID,0,VALID,95.9713,VALID,0,VALID,23.6664,VALID,15,VALID,0.384375,
2008-05-27, 03:19:04,VALID,1003.78,VALID,0,VALID,96.0323,VALID,0,VALID,23.6859,VALID,15,VALID,0.374609,
2008-05-27, 03:20:04,VALID,1003.79,VALID,0,VALID,96.0095,VALID,0,VALID,23.7053,VALID,15,VALID,0.401563,
2008-05-27, 03:21:04,VALID,1003.78,VALID,0,VALID,95.9866,VALID,0,VALID,23.7248,VALID,15,VALID,0.401563,
2008-05-27, 03:22:04,VALID,1003.77,VALID,0,VALID,95.9789,VALID,0,VALID,23.7248,VALID,15,VALID,0.399609,
2008-05-27, 03:23:04,VALID,1003.74,VALID,0,VALID,95.9713,VALID,0,VALID,23.7248,VALID,15,VALID,0.330469,
2008-05-27, 03:24:04,VALID,1003.72,VALID,0,VALID,95.9789,VALID,0,VALID,23.7461,VALID,15,VALID,0.243359,
2008-05-27, 03:25:04,VALID,1003.69,VALID,0,VALID,95.9866,VALID,0,VALID,23.7443,VALID,15,VALID,0.132031,
2008-05-27, 03:26:04,VALID,1003.64,VALID,0,VALID,95.9713,VALID,0,VALID,23.7248,VALID,15,VALID,0,
2008-05-27, 03:27:04,VALID,1003.61,VALID,0,VALID,95.9561,VALID,0,VALID,23.7248,VALID,15,VALID,0,
2008-05-27, 03:28:04,VALID,1003.58,VALID,0,VALID,95.9484,VALID,0,VALID,23.7035,VALID,15,VALID,0,
2008-05-27, 03:29:04,VALID,1003.58,VALID,0,VALID,95.9789,VALID,0,VALID,23.7443,VALID,15,VALID,0,
2008-05-27, 03:30:04,VALID,1003.57,VALID,0,VALID,95.9866,VALID,0,VALID,23.7248,VALID,15,VALID,0.208594,
2008-05-27, 03:31:04,VALID,1003.57,VALID,0,VALID,95.9332,VALID,0,VALID,23.7248,VALID,15,VALID,0.359375,
2008-05-27, 03:32:04,VALID,1003.57,VALID,0,VALID,95.9789,VALID,0,VALID,23.7035,VALID,15,VALID,0.449219,
2008-05-27, 03:33:04,VALID,1003.59,VALID,0,VALID,96.0171,VALID,0,VALID,23.7443,VALID,15,VALID,0.382813,
2008-05-27, 03:34:04,VALID,1003.57,VALID,0,VALID,96.0247,VALID,0,VALID,23.7425,VALID,15,VALID,0.525781,
2008-05-27, 03:35:04,VALID,1003.59,VALID,0,VALID,96.0323,VALID,0,VALID,23.7637,VALID,15,VALID,0.43125,
2008-05-27, 03:36:04,VALID,1003.54,VALID,0,VALID,95.9942,VALID,0,VALID,23.723,VALID,15,VALID,0.391406,
2008-05-27, 03:37:04,VALID,1003.55,VALID,0,VALID,96.0629,VALID,0,VALID,23.7443,VALID,15,VALID,0.253125,
2008-05-27, 03:38:04,VALID,1003.52,VALID,0,VALID,96.101,VALID,0,VALID,23.7832,VALID,15,VALID,0.0386719,
2008-05-27, 03:39:04,VALID,1003.53,VALID,0,VALID,96.101,VALID,0,VALID,23.7814,VALID,15,VALID,0.15,
2008-05-27, 03:40:04,VALID,1003.51,VALID,0,VALID,96.0781,VALID,0,VALID,23.8027,VALID,15,VALID,0.163672,
2008-05-27, 03:41:04,VALID,1003.45,VALID,0,VALID,96.0476,VALID,0,VALID,23.8027,VALID,15,VALID,0,
2008-05-27, 03:42:04,VALID,1003.48,VALID,0,VALID,96.0247,VALID,0,VALID,23.7814,VALID,15,VALID,0.0566406,
2008-05-27, 03:43:04,VALID,1003.47,VALID,0,VALID,96.0323,VALID,0,VALID,23.8027,VALID,13,VALID,0.3125,
2008-05-27, 03:44:04,VALID,1003.49,VALID,0,VALID,96.0171,VALID,0,VALID,23.7814,VALID,13,VALID,0.308984,
2008-05-27, 03:45:04,VALID,1003.46,VALID,0,VALID,96.0323,VALID,0,VALID,23.8027,VALID,13,VALID,0.380859,
2008-05-27, 03:46:04,VALID,1003.46,VALID,0,VALID,96.0171,VALID,0,VALID,23.7814,VALID,13,VALID,0.335547,
2008-05-27, 03:47:04,VALID,1003.47,VALID,0,VALID,95.9789,VALID,0,VALID,23.7832,VALID,13,VALID,0.39375,
2008-05-27, 03:48:04,VALID,1003.52,VALID,0,VALID,95.9713,VALID,0,VALID,23.7425,VALID,13,VALID,0.411328,
2008-05-27, 03:49:04,VALID,1003.52,VALID,0,VALID,95.9866,VALID,0,VALID,23.7637,VALID,13,VALID,0.417188,
2008-05-27, 03:50:04,VALID,1003.55,VALID,0,VALID,95.9713,VALID,0,VALID,23.7248,VALID,13,VALID,0.474609,
2008-05-27, 03:51:04,VALID,1003.58,VALID,0,VALID,95.9789,VALID,0,VALID,23.7248,VALID,13,VALID,0.397266,